RH
61 58 54 57 57 50 48 53 53 52 56 57 56 55 51 48 47 46 48 57 60 59 58 53 48 48 49 50 50 51 53 52 52 53 53 53 52 52 50 48 47 43 40 36 34 32 31 32 30 27 25 23 24 21 18 18 15 14 12 12 11 11 12 10 10 18 21 21 25 28 28 28 32 28 25 31 30 29 32 27 28 30 24 28 33 33
54 53 55 53 49 46 47 50 49 51 54 56 60 58 48 45 45 43 44 50 56 57 54 49 51 50 46 47 47 50 53 52 54 55 52 51 50 50 51 51 48 43 39 35 33 32 29 31 31 28 25 22 23 22 17 18 19 17 12 12 15 12 13 13 11 17 23 21 24 30 30 30 32 29 26 31 32 30 33 29 28 31 28 30 34 33
52 52 52 49 48 50 50 50 48 48 49 49 50 50 46 44 45 43 40 43 50 52 48 50 56 52 46 45 45 49 53 51 52 53 50 49 48 49 49 49 47 41 38 36 34 32 29 31 32 28 26 24 23 22 19 18 21 20 12 13 19 14 11 14 11 15 21 20 23 30 33 32 32 30 28 31 32 30 33 31 27 31 33 32 32 33
56 52 48 49 54 58 54 48 48 48 48 47 45 47 47 46 47 46 41 44 47 46 48 57 57 48 46 46 45 48 50 48 49 50 49 47 47 49 48 44 42 40 38 37 35 33 32 32 30 28 26 25 23 22 21 19 20 20 16 16 21 17 10 12 12 12 16 16 18 27 32 31 31 31 29 31 32 30 33 31 26 32 37 33 33 34
51 47 47 52 56 57 54 48 48 48 49 48 48 50 49 48 47 44 44 46 44 44 49 56 54 45 43 43 42 45 48 47 46 48 47 44 44 45 43 39 38 39 37 36 35 32 32 31 30 29 26 24 24 23 22 21 20 18 18 19 20 17 10 11 12 10 12 13 15 23 30 31 32 33 32 31 31 31 34 33 28 33 37 35 35 36
47 45 48 54 52 53 54 50 47 47 50 49 46 49 49 48 47 44 48 51 49 52 51 51 55 50 42 42 41 42 46 47 45 45 45 44 42 40 40 37 35 38 35 34 35 31 30 30 29 29 26 23 24 23 23 23 21 16 14 16 18 15 11 10 11 10 11 12 17 26 31 33 34 32 32 32 32 32 35 35 31 34 38 37 37 36
46 45 47 53 52 51 51 48 46 46 51 47 41 46 47 50 56 51 51 53 52 56 52 50 55 52 48 47 42 38 41 45 42 41 44 45 41 38 39 37 34 36 36 35 33 29 30 30 28 28 25 24 23 24 24 25 23 16 11 13 15 14 11 10 10 10 12 13 19 27 32 35 35 33 33 33 33 33 35 36 34 36 38 38 38 37
47 45 42 51 52 49 49 49 44 43 51 50 39 42 48 58 67 58 55 57 51 51 52 54 55 52 52 49 39 36 38 41 39 40 45 46 42 37 34 33 32 33 35 35 32 29 31 29 27 27 25 24 23 24 25 25 25 19 12 11 12 12 11 10 10 10 13 17 21 27 32 34 34 33 33 32 32 34 36 35 34 37 39 38 39 38
43 41 38 47 50 47 48 48 43 40 48 47 37 39 45 54 60 55 58 61 53 54 57 58 56 53 53 46 36 36 39 41 39 40 43 41 40 36 30 30 32 34 37 37 33 30 30 28 26 26 25 25 25 25 25 23 24 20 12 11 10 10 11 10 11 11 14 19 25 28 31 33 34 32 32 32 33 35 36 36 35 38 39 38 39 38
38 36 37 41 45 45 45 43 42 43 43 39 35 38 40 44 52 52 56 58 56 58 58 58 56 52 50 45 40 39 41 41 38 39 39 37 38 35 32 35 36 38 41 40 36 31 28 27 26 26 26 26 25 26 25 22 23 21 12 11 11 10 11 10 10 12 13 18 26 31 30 30 32 33 33 34 34 36 38 38 38 39 38 38 38 37
37 36 37 37 38 43 45 40 40 43 40 36 38 41 41 44 50 51 53 57 61 61 57 55 55 54 52 48 44 41 39 39 36 36 34 34 39 36 35 38 37 38 41 40 38 30 28 29 27 27 27 26 26 27 24 22 24 20 13 13 12 9 10 10 10 12 12 16 25 31 30 27 29 32 34 36 36 37 39 40 39 38 37 37 36 36
43 44 42 38 36 42 47 42 38 39 37 39 45 48 49 48 50 54 54 55 65 71 65 59 56 58 60 55 46 38 35 36 35 35 33 33 37 37 37 37 35 38 39 40 38 30 29 30 28 29 29 26 27 26 23 22 23 19 14 14 13 10 10 10 11 12 12 15 21 27 28 26 26 30 31 35 38 39 40 39 38 38 37 36 35 35
44 46 43 38 37 40 45 46 42 41 43 47 49 52 55 53 52 58 54 52 66 74 67 65 61 56 58 53 42 33 35 39 37 34 34 36 36 36 38 35 34 37 37 38 38 32 33 32 28 30 29 26 27 26 24 23 22 18 14 14 13 11 11 11 11 12 13 14 17 21 23 23 26 30 29 32 38 40 40 39 38 37 36 35 34 35
42 47 45 41 39 37 40 47 47 45 50 55 55 58 65 62 59 62 57 53 65 69 62 62 58 53 58 53 39 34 35 38 42 37 33 36 36 35 38 37 36 37 37 39 38 36 36 33 29 30 28 27 27 26 24 23 22 18 12 13 13 12 11 11 12 13 13 14 17 19 20 21 23 28 32 35 39 41 40 38 37 35 35 35 33 34
43 50 49 41 37 35 37 43 43 42 49 53 54 60 67 67 64 65 60 55 63 66 62 58 54 55 63 54 40 38 33 32 40 39 34 38 39 38 40 41 39 39 40 40 39 38 37 32 31 30 29 28 26 25 24 21 21 18 13 12 12 12 12 11 12 14 14 14 16 18 19 20 22 27 34 39 40 41 41 37 36 36 35 34 33 33
40 43 41 35 31 31 36 40 38 39 47 51 52 54 55 56 59 62 60 61 67 65 59 61 59 55 55 48 40 41 37 34 39 38 36 41 41 39 41 42 42 42 42 42 40 38 35 33 33 32 31 29 26 25 21 16 16 15 13 11 11 13 13 13 13 14 17 18 17 18 19 20 23 27 34 40 41 41 40 37 36 37 35 34 33 32
38 38 36 33 32 29 33 41 39 37 42 48 50 48 43 44 50 55 57 61 69 65 57 60 60 52 53 51 45 43 40 39 42 40 38 41 41 39 40 43 43 42 43 44 41 37 36 36 35 34 34 31 27 26 19 11 10 11 11 11 11 13 15 18 19 15 18 21 19 18 19 21 24 26 32 39 42 41 40 37 36 37 36 35 34 33
35 36 33 32 35 32 30 37 39 35 35 42 45 40 39 44 47 50 54 57 66 66 58 58 54 52 57 55 48 49 46 43 45 42 39 41 44 42 42 45 46 43 44 45 42 39 38 38 36 35 35 34 30 25 17 11 9 10 11 11 11 13 15 21 27 23 18 19 18 17 18 21 24 25 29 38 43 42 39 38 37 37 38 37 35 33
32 34 37 35 35 33 29 30 35 38 38 39 40 35 36 45 47 49 51 51 64 70 64 61 54 51 56 54 51 53 50 47 50 46 41 41 43 45 46 48 48 46 46 47 44 40 41 41 39 37 36 36 32 25 20 17 13 9 10 11 11 11 12 15 22 24 20 18 19 17 17 20 21 22 26 36 43 42 37 38 39 37 39 39 36 33
29 34 42 41 37 34 32 31 36 44 45 42 43 41 41 44 44 47 47 48 62 71 65 60 55 52 55 54 55 58 52 49 52 50 46 42 41 46 48 47 49 48 46 47 44 41 44 44 41 40 38 37 33 27 24 22 17 13 13 13 13 14 14 12 13 16 17 17 18 16 16 17 18 20 23 31 41 41 37 38 39 39 38 39 36 32
30 33 37 37 34 33 34 36 39 45 45 43 48 51 51 51 46 45 45 46 55 62 59 55 53 52 53 52 56 59 54 51 53 53 50 47 44 46 47 47 49 49 44 44 44 43 46 45 43 43 40 37 34 27 24 23 21 20 19 18 20 22 21 18 14 13 14 16 16 15 15 16 18 20 22 27 37 41 39 38 39 40 39 38 36 32
32 32 32 32 33 35 36 37 36 37 37 37 42 45 46 47 46 44 44 43 45 49 48 49 51 50 49 50 52 53 51 52 56 55 53 52 49 48 48 48 50 50 45 42 43 44 47 46 45 45 42 38 34 27 22 21 20 20 20 21 23 25 26 24 19 14 13 15 16 15 15 16 17 20 23 27 33 39 40 39 40 41 38 37 35 32
30 30 31 30 30 32 34 33 33 33 30 28 31 33 34 37 39 40 45 45 40 38 40 46 56 57 50 48 51 51 51 53 54 54 53 55 53 49 49 49 51 53 50 46 45 45 47 47 45 45 44 39 33 27 21 20 19 19 20 21 22 23 25 27 23 18 14 14 14 15 15 16 17 19 23 28 33 39 41 39 40 41 39 37 35 31
30 32 32 29 29 30 31 34 37 35 30 28 31 32 34 38 40 39 43 43 37 39 45 50 57 57 49 48 49 49 51 50 50 54 56 57 55 50 49 50 50 52 53 50 48 46 47 48 46 45 44 41 36 28 22 20 20 20 20 21 21 21 23 27 27 24 19 15 14 15 15 16 17 19 22 28 34 40 41 39 39 40 39 38 35 31
32 35 34 31 32 34 35 39 41 39 37 35 33 33 33 37 41 41 41 41 42 45 48 48 51 51 46 46 48 49 51 49 50 54 54 54 55 53 53 53 51 50 50 50 49 48 48 48 46 45 44 42 37 31 24 21 20 19 20 20 18 18 22 26 27 26 23 19 15 15 15 15 17 19 22 28 35 40 42 40 38 37 40 40 35 31
32 36 34 33 35 36 40 43 41 41 39 35 34 35 33 33 37 41 40 41 44 45 43 44 48 46 43 43 45 47 49 48 49 53 53 53 55 56 55 54 53 50 48 48 48 48 49 48 45 45 44 41 38 34 27 21 20 20 19 19 18 18 20 22 20 20 22 19 16 15 15 16 17 19 23 29 34 39 42 41 37 36 39 40 36 32
29 33 33 33 34 35 38 40 40 39 37 35 36 35 33 32 35 38 39 40 43 43 43 45 46 44 44 45 45 46 49 47 47 50 51 52 56 59 55 53 54 53 50 49 49 49 49 48 45 45 44 41 38 36 29 21 20 19 16 17 19 17 17 18 18 17 17 17 16 15 15 16 17 20 25 30 33 36 39 40 37 35 38 39 37 33
28 30 30 31 31 32 34 35 36 36 36 35 35 33 30 31 32 34 36 39 40 39 39 43 45 43 43 44 44 46 49 50 48 48 49 50 55 58 57 54 55 54 52 50 50 53 53 48 46 46 44 41 39 36 30 22 19 19 19 20 20 15 15 19 21 19 16 15 16 16 16 16 19 22 26 31 33 33 34 34 34 35 38 39 38 35
29 28 27 28 29 29 30 31 32 33 34 34 34 34 32 32 34 36 35 35 38 40 40 44 46 42 38 41 43 43 45 48 47 45 47 50 53 56 57 58 56 53 52 51 51 55 55 49 47 47 45 43 40 37 31 24 21 21 21 23 22 18 18 22 24 21 17 17 18 19 18 18 20 22 25 31 34 33 30 28 30 33 34 36 38 37
32 32 30 28 30 30 29 30 32 33 34 34 35 36 36 39 42 41 39 39 43 45 43 43 44 39 37 41 42 39 41 44 42 42 46 49 51 53 56 58 57 52 52 54 55 57 55 50 49 48 48 47 43 39 32 25 22 21 22 24 22 19 19 24 27 25 21 20 19 20 21 20 21 22 25 31 34 34 30 27 27 31 32 32 35 36
40 41 39 36 34 31 29 31 34 34 33 33 32 32 34 41 45 43 42 43 43 41 37 36 38 37 38 43 44 42 41 41 41 44 48 49 51 55 56 55 53 49 49 53 58 59 56 52 51 50 50 51 48 42 33 26 21 20 22 23 22 21 23 25 26 24 23 23 23 23 23 21 20 21 25 31 34 33 30 27 27 31 32 32 31 31
47 45 44 41 37 33 32 33 34 34 33 33 33 32 34 41 44 42 41 40 39 39 37 36 36 36 40 44 45 45 42 40 40 42 45 49 53 57 59 57 54 51 49 52 58 59 55 52 53 52 52 53 52 46 36 26 22 21 22 23 24 25 25 23 23 24 25 26 25 25 25 22 20 21 25 30 32 30 28 27 29 32 34 33 30 27
50 46 45 41 36 33 34 35 36 37 37 36 37 37 37 39 39 38 36 34 35 38 38 37 36 37 40 41 44 46 41 37 38 39 42 49 52 54 57 59 58 56 52 52 55 56 55 53 54 54 54 54 55 50 39 28 23 22 23 23 23 22 21 22 24 26 26 25 23 23 24 22 20 21 25 29 30 28 25 25 28 33 37 36 31 27
47 45 45 43 38 35 36 38 42 45 42 39 39 37 35 35 35 36 37 34 34 34 34 35 34 35 38 40 43 46 42 37 40 41 41 45 49 50 52 52 52 54 53 51 51 52 52 53 55 56 55 55 56 52 42 30 24 23 23 21 19 18 20 23 25 26 26 25 24 24 24 21 20 23 27 29 29 26 22 21 25 31 36 38 32 28
44 43 44 44 42 40 40 45 51 50 44 39 38 36 35 36 34 35 36 35 34 32 32 34 34 34 40 41 41 43 42 40 42 42 40 43 46 47 47 44 44 48 51 50 48 48 49 51 55 57 55 55 56 53 44 33 25 23 21 19 17 19 22 24 25 26 26 25 25 26 24 21 21 25 29 30 29 25 21 20 25 30 34 37 35 31
46 48 46 45 43 42 44 47 49 46 40 39 39 36 34 35 34 35 36 35 33 33 33 35 36 37 42 44 42 42 40 39 40 40 41 44 45 46 46 44 43 45 48 49 48 48 47 49 54 56 55 55 56 55 48 35 25 22 21 20 20 21 23 25 25 25 25 25 27 28 25 22 24 28 31 31 28 25 21 21 25 30 33 35 36 33
43 49 50 47 46 46 45 44 41 40 41 42 42 38 35 35 38 39 38 36 34 34 34 35 37 38 39 40 40 38 35 34 38 41 44 47 48 46 44 43 44 46 47 48 49 48 47 49 53 55 55 55 56 55 50 38 26 23 24 23 23 24 24 25 24 23 24 28 29 28 27 24 25 30 32 30 26 24 22 23 26 30 32 34 34 34
42 50 54 55 55 53 48 44 41 41 41 39 39 40 39 39 39 38 37 37 36 36 37 36 38 41 42 41 39 36 33 33 37 42 44 45 48 48 41 39 44 47 45 45 45 44 45 49 52 53 53 53 54 54 49 40 29 24 24 24 24 25 25 24 24 23 25 28 28 29 29 28 28 32 32 28 24 23 23 25 28 31 33 34 34 33
46 53 55 57 61 60 53 48 45 42 40 37 37 40 41 40 39 39 40 39 37 39 40 38 39 42 42 41 41 39 37 36 39 42 41 39 42 42 37 38 46 47 41 39 40 41 45 49 50 51 51 52 54 52 47 40 31 25 24 24 24 25 25 25 25 25 26 29 30 30 30 29 30 32 30 26 23 22 22 24 26 29 32 35 35 34
44 52 54 56 60 60 55 50 46 43 39 38 39 40 40 39 40 43 46 43 39 39 40 39 40 41 40 40 41 41 38 38 41 43 41 37 36 34 33 39 46 42 37 37 39 41 45 48 48 49 51 52 53 51 46 40 32 26 24 24 25 25 25 25 26 26 27 28 28 26 26 27 30 32 29 24 21 22 23 23 22 23 26 29 31 32
44 49 56 59 58 53 51 51 50 45 42 41 42 42 41 42 44 46 46 44 40 39 38 39 40 40 40 41 42 41 40 41 43 43 40 36 33 33 35 41 43 39 36 38 40 42 43 45 47 48 50 51 50 48 46 40 32 26 24 24 26 26 25 26 25 25 25 25 24 25 26 28 31 31 27 22 21 23 24 24 23 21 22 25 26 28
48 49 52 55 52 48 49 51 50 47 46 47 48 48 48 49 49 46 44 44 44 42 40 40 41 39 38 40 41 41 43 43 43 44 42 37 34 35 37 38 39 37 36 37 40 42 42 43 45 46 47 47 46 45 44 38 29 25 25 26 26 25 24 24 23 22 24 25 25 26 28 29 31 30 25 21 21 24 25 26 27 26 25 27 28 29
51 49 47 47 48 49 53 55 52 50 51 52 53 53 53 52 50 49 48 49 49 46 44 44 43 40 39 40 41 43 44 42 41 43 44 41 39 37 35 34 33 33 35 39 42 42 40 41 42 43 45 44 43 43 41 32 25 24 25 25 24 23 22 21 21 23 26 27 26 28 29 30 31 29 24 21 21 25 28 30 32 31 30 32 33 32
48 47 46 48 49 50 52 53 50 50 52 53 54 53 50 48 49 51 51 52 53 52 50 47 45 43 42 41 42 44 46 44 41 42 45 45 42 38 34 32 32 33 37 42 42 40 40 41 41 42 43 42 42 42 37 27 20 21 23 23 22 21 20 20 22 25 27 27 27 29 30 31 30 28 24 22 23 27 32 35 34 33 32 33 35 34
46 48 52 54 54 51 48 47 48 49 53 55 56 52 46 45 50 53 50 48 50 50 48 46 46 47 47 45 44 44 46 45 42 43 49 49 43 39 36 33 34 37 41 42 42 41 41 41 41 42 43 42 41 39 32 24 19 18 20 21 20 20 19 21 23 26 26 27 28 30 30 30 29 28 28 27 28 32 37 39 37 34 32 34 36 36
47 52 54 54 54 52 48 46 47 48 51 53 54 55 53 50 51 51 48 46 48 48 47 47 47 49 48 46 46 47 47 47 44 44 51 52 45 40 37 34 36 42 43 41 42 42 42 42 43 43 43 43 41 35 30 24 19 17 18 19 19 20 20 21 24 26 27 29 29 29 30 29 28 29 30 30 31 35 38 40 38 35 32 32 35 36
47 51 51 51 55 56 52 49 48 49 50 50 51 53 53 49 46 46 47 48 48 49 50 49 50 54 54 49 48 50 50 49 47 46 48 50 46 41 37 36 40 43 42 40 42 43 43 43 44 44 44 43 39 34 30 26 21 18 18 18 19 21 21 22 25 27 28 30 29 29 29 28 28 30 33 33 32 33 34 34 34 32 30 28 30 32
48 51 52 53 55 54 53 52 53 52 52 53 52 51 48 46 45 47 49 48 47 48 51 51 53 60 62 55 50 51 51 52 53 51 50 51 48 42 37 39 41 42 41 41 43 43 43 44 44 45 44 40 36 34 31 27 22 18 18 18 20 21 22 24 27 29 30 29 29 29 29 28 30 34 34 32 30 28 28 29 30 30 29 28 28 30
48 50 53 55 56 56 53 53 54 55 55 57 59 57 52 48 45 45 47 49 46 45 49 51 53 60 64 60 53 51 52 54 54 53 53 53 49 43 39 39 40 40 41 43 43 42 44 45 45 46 43 38 35 34 32 29 25 20 18 19 21 22 24 26 28 31 31 29 29 30 30 30 35 36 32 29 29 28 27 29 29 29 30 31 32 32
46 48 50 53 57 57 54 51 52 54 54 57 61 63 60 54 49 46 48 50 47 44 47 51 52 57 63 63 57 54 56 58 56 52 52 52 48 42 40 39 38 39 42 43 44 45 46 45 44 43 41 37 36 34 33 33 29 23 20 21 22 23 25 27 30 31 30 29 30 31 30 35 39 36 30 29 30 30 29 29 29 29 31 34 36 36
39 42 44 48 51 50 51 54 55 53 53 54 57 60 61 59 56 53 50 49 48 48 49 51 52 53 56 58 59 59 59 59 57 54 53 52 48 42 39 38 37 37 40 41 43 46 47 46 44 42 39 37 37 36 36 37 35 29 24 23 24 25 26 28 30 30 29 30 32 30 32 39 41 34 28 29 31 31 31 31 29 30 33 35 38 38